Weather History for KCSM - August, 2011

Change the Weather History Date:

Wednesday, August 31, 2011

  Actual Average Record
Temperature  
Mean Temperature 92 °F -  
Max Temperature 102 °F 90 °F 104 °F (2013)
Min Temperature 82 °F 67 °F 63 °F (1998)
Cooling Degree Days 27    
Growing Degree Days 42 (Base 50)    
Moisture  
Dew Point 48 °F    
Average Humidity 23    
Maximum Humidity 32    
Minimum Humidity 15    
Precipitation  
Precipitation 0.00 in - - ()
Sea Level Pressure  
Sea Level Pressure 29.80 in    
Wind  
Wind Speed 19 mph (South)    
Max Wind Speed 28 mph    
Max Gust Speed 32 mph    
Visibility 10 miles    
Events      
Averages and records for this station are not official NWS values.
T = Trace of Precipitation, MM = Missing Value Source: NWS Daily Summary

Daily Weather History Graph

Daily Weather History Graph

Search for Another Location

Airport or City:

Trip Planner

Search our weather history database for the weather conditions in past years. The results will help you decide how hot, cold, wet, or windy it might be!

Date:

Astronomy

Aug. 31, 2011 Rise Set
Actual Time 7:08 AM CDT 8:05 PM CDT
Civil Twilight 6:42 AM CDT 8:31 PM CDT
Nautical Twilight 6:11 AM CDT 9:02 PM CDT
Astronomical Twilight 5:39 AM CDT 9:33 PM CDT
Moon 10:06 AM CDT (8/31) 9:29 PM CDT (8/31)
Length of Visible Light 13h 49m
Length of Day
12h 57m
Waxing Crescent, 10% of the Moon is Illuminated
Aug 31
Waxing Crescent
Sep 4
First Quarter
Sep 12
Full
Sep 20
Last Quarter
Sep 27
New

Hourly Weather History & Observations

Time (CDT) Temp. Dew Point Humidity Pressure Visibility Wind Dir Wind Speed Gust Speed Precip Events Conditions
12:53 AM 87.1 °F 46.0 °F 24% 29.74 in 10.0 mi South 15.0 mph - N/A   Clear
1:53 AM 87.1 °F 46.9 °F 25% 29.74 in 10.0 mi South 19.6 mph 26.5 mph N/A   Clear
2:53 AM 87.1 °F 48.9 °F 27% 29.73 in 10.0 mi South 20.7 mph 29.9 mph N/A   Clear
3:53 AM 84.9 °F 50.0 °F 30% 29.75 in 10.0 mi South 20.7 mph - N/A   Clear
4:53 AM 82.9 °F 50.0 °F 32% 29.76 in 10.0 mi South 16.1 mph - N/A   Clear
6:53 AM 82.9 °F 50.0 °F 32% 29.79 in 10.0 mi South 20.7 mph - N/A   Clear
7:53 AM 82.9 °F 48.9 °F 31% 29.80 in 10.0 mi South 21.9 mph 27.6 mph N/A   Clear
9:53 AM 88.0 °F 51.1 °F 28% 29.83 in 10.0 mi SSW 20.7 mph 27.6 mph N/A   Clear
10:53 AM 93.0 °F 50.0 °F 23% 29.84 in 10.0 mi SSW 27.6 mph 32.2 mph N/A   Clear
11:53 AM 98.1 °F 48.9 °F 19% 29.84 in 10.0 mi SSW 20.7 mph 32.2 mph N/A   Clear
12:53 PM 100.0 °F 50.0 °F 18% 29.83 in 10.0 mi South 19.6 mph 27.6 mph N/A   Clear
1:53 PM 102.0 °F 50.0 °F 17% 29.81 in 10.0 mi South 19.6 mph 32.2 mph N/A   Clear
2:53 PM 102.0 °F 48.9 °F 17% 29.80 in 10.0 mi South 24.2 mph 32.2 mph N/A   Clear
3:53 PM 102.0 °F 50.0 °F 17% 29.78 in 10.0 mi South 21.9 mph 32.2 mph N/A   Clear
5:53 PM 102.0 °F 48.0 °F 16% 29.78 in 10.0 mi South 26.5 mph 32.2 mph N/A   Clear
6:53 PM 100.0 °F 45.0 °F 15% 29.78 in 10.0 mi South 18.4 mph - N/A   Clear
8:53 PM 93.0 °F 44.1 °F 18% 29.81 in 10.0 mi South 17.3 mph - N/A   Clear
9:53 PM 91.0 °F 45.0 °F 20% 29.84 in 10.0 mi South 16.1 mph - N/A   Clear
10:53 PM 89.1 °F 46.0 °F 22% 29.86 in 10.0 mi South 17.3 mph 27.6 mph N/A   Clear
11:53 PM 88.0 °F 45.0 °F 22% 29.86 in 9.0 mi South 21.9 mph 25.3 mph N/A   Clear